Regional Weather Roundup
Issued by NWS

Home | Current Version | Previous Version | Graphics & Text | Print | Product List | Glossary Off
Versions: 1 2 3 4 5 6 7 8 9 10 11 12 13 14 15 16 17 18 19 20 21 22 23 24 25 26 27 28 29 30 31 32 33 34 35 36 37 38 39 40 41 42 43 44 45 46 47 48 49 50

000
ASUS43 KMKX 060421
RWRWI

WISCONSIN REGIONAL WEATHER ROUNDUP
NATIONAL WEATHER SERVICE MILWAUKEE/SULLIVAN WI
1100 PM CDT TUE MAY 05 2015

NOTE: "FAIR" INDICATES FEW OR NO CLOUDS BELOW 12,000 FEET WITH NO
SIGNIFICANT WEATHER AND/OR OBSTRUCTIONS TO VISIBILITY.

WIZ001-002-006>008-014>016-023>028-060500-
NORTHWEST WISCONSIN

CITY           SKY/WX    TMP DP  RH WIND       PRES   REMARKS
SUPERIOR ARPT  PTCLDY    43  33  68 E6        30.19R
ASHLAND        CLEAR     36  33  89 CALM      30.19S
HAYWARD        PTCLDY    59  29  31 S8        30.19S
SIREN          MOCLDY    60  30  31 SE5       30.16S
CUMBERLAND     CLOUDY    55  32  41 SE6       30.17F
RICE LAKE      CLOUDY    59  34  39 SE10      30.19F
CHETEK         CLOUDY    58  38  46 E6        30.19S
LADYSMITH      CLOUDY    56  32  40 E6        30.22F
EAU CLAIRE     LGT RAIN  55  47  74 SE12      30.18F
MENOMONIE      DRIZZLE   55  50  83 E14G20    30.18S
NEW RICHMOND   CLOUDY    57  49  73 SE12      30.16S
OSCEOLA        CLOUDY    60  49  67 SE13      30.17S
$$

WIZ003>005-009-010-017-018-060500-
NORTH CENTRAL WISCONSIN

CITY           SKY/WX    TMP DP  RH WIND       PRES   REMARKS
MANITOWISH WTR CLEAR     52  29  40 S5        30.23S
ARBOR VITAE    CLEAR     57  29  34 SE3       30.24S
WOODRUFF       CLEAR     57  29  34 SE3       30.24S
RHINELANDER    PTCLDY    51  26  37 SE5       30.25S
EAGLE RIVER    CLEAR     49  27  42 S3        30.25S
LAND O LAKES   CLEAR     52  28  39 SE3       30.25S
PHILLIPS       MOCLDY    54  30  39 SE3       30.22S
TOMAHAWK       MOCLDY    49  29  45 CALM      30.25S
MEDFORD        CLOUDY    55  24  30 SE6       30.22S
MERRILL        MOCLDY    51  28  41 CALM      30.25S
$$

WIZ029-030-035-036-043>047-060500-
CENTRAL WISCONSIN

CITY           SKY/WX    TMP DP  RH WIND       PRES   REMARKS
WAUSAU         CLOUDY    56  23  27 E7        30.22S
MOSINEE        CLOUDY    55  27  33 SE5       30.25S
MARSHFIELD     LGT RAIN  54  45  71 SE7       30.22S
STEVENS POINT  CLOUDY    55  42  59 SE5       30.24F
WAUPACA        LGT RAIN  58  47  66 SE3       30.25S
WAUTOMA        CLOUDY    55  47  74 CALM      30.24F
WISC RAPIDS    LGT RAIN  54  43  66 SE6       30.24S
CAMP DOUGLAS   LGT RAIN  52  52 100 E8        30.20F
$$

WIZ011>013-019>022-031-037>040-048>050-060500-
NORTHEAST WISCONSIN

CITY           SKY/WX    TMP DP  RH WIND       PRES   REMARKS
ANTIGO         MOCLDY    50  33  50 E6        30.25F
SHAWANO        CLOUDY    56  29  35 CALM      30.26S
OCONTO         CLOUDY    51  41  69 CALM      30.26S
STURGEON BAY   CLOUDY    54  30  40 E3        30.28F
GREEN BAY      CLOUDY    54  35  48 SE7       30.25F
MANITOWOC      CLOUDY    48  40  73 W3        30.27F
APPLETON       MOCLDY    57  36  44 E7        30.25F
CLINTONVILLE   CLOUDY    55  30  38 SE3       30.25S
OSHKOSH        CLOUDY    56  41  57 E8        30.24F
$$

WIZ032>034-041-042-053>061-060500-
SOUTHWEST WISCONSIN

CITY           SKY/WX    TMP DP  RH WIND       PRES   REMARKS
LA CROSSE      CLOUDY    56  53  90 E3        30.18F
SPARTA         DRIZZLE   53  51  92 E3        30.20S
VIROQUA        CLOUDY    52  52 100 E10       30.18F
BOSCOBEL       CLOUDY    56  53  90 CALM      30.20S FOG
PRAIRIE DU CHI CLOUDY    56  54  91 E6        30.17F
PLATTEVILLE    CLOUDY    53  51  95 E14G21    30.18S
$$

WIZ056-057-062-063-064-067-068-060500-
SOUTH CENTRAL WISCONSIN

CITY           SKY/WX    TMP DP  RH WIND       PRES   REMARKS
REEDSBURG      CLOUDY    52  50  93 CALM      30.21S
BARABOO/DELLS  NOT AVBL
LONE ROCK      CLOUDY    54  51  90 E10       30.20F
MINERAL POINT  CLOUDY    54  50  87 E9        30.20S FOG
MADISON        CLOUDY    52  48  86 SE12      30.22S
MIDDLETON      CLOUDY    53  50  89 E8        30.22F
WATERTOWN      DRIZZLE   51  51 100 E8        30.22F
MONROE         CLOUDY    50  50 100 E8        30.20F FOG
JANESVILLE     CLOUDY    52  50  93 E8        30.22S FOG
$$

WIZ051-052-058>065-066-070>072-060500-
SOUTHEAST WISCONSIN

CITY           SKY/WX    TMP DP  RH WIND       PRES   REMARKS
MILWAUKEE      CLOUDY    46  40  79 NE6       30.25F
WAUKESHA       CLOUDY    46  45  93 E5        30.26S
MILWAUKEE/TIMM RAIN      46  41  81 E3        30.26F
RACINE         CLOUDY    45  41  86 NE6       30.26F
BURLINGTON     CLOUDY    47  46  96 E3        30.24S
KENOSHA        CLOUDY    48  45  89 NE7       30.25S
FOND DU LAC    CLOUDY    53  43  68 E5        30.25S
SHEBOYGAN      CLOUDY    47  38  71 NE6       30.26F
WEST BEND      CLOUDY    50  39  66 E5        30.25S
JUNEAU         HVY RAIN  51  47  89 E7        30.24F
$$

LSZ147-162-060500-
LAKE SUPERIOR

STATION/POSITION TIME  TEMP    WIND        PRES    WAVE
                       AIR SEA DIR/SP/G            HT/PER
                 (UTC) (F)     (DEG/KT/KT) (MB)    (FT/S)
W MID LAKE BUOY  0350   41 35   90/ 10/ 12 1022.7R   1/ 3
DEVILS ISLAND    0400   46     220/  8/  9 1022.5R
PORT WING        0340   42     150/  1/  3 1022.4R
SAXON HARBOR     0300   43        CALM     1021.7R
$$

LMZ867-665-643>646-060500-
LAKE MICHIGAN

STATION/POSITION TIME  TEMP    WIND        PRES    WAVE
                       AIR SEA DIR/SP/G            HT/PER
                 (UTC) (F)     (DEG/KT/KT) (MB)    (FT/S)
CHAMBERS ISLAND  0300   44      CALM  /  1 1025.1R
NORTHPORT PIER   0300   48     310/  3/  3 1024.7S
SISTER BAY       0347   46        CALM       N/A
KEWAUNEE LAKESHO 0300   47      CALM  /  1 1024.2R
SHEBOYGAN LAKESH 0400   47      10/  4/  4 1025.2F
PORT WASHINGTON  0340   46      50/  6/  7 1025.4R
ATWATER BUOY     0400   44      10/  6/  8 1025.8R
MILWAUKEE LAKESH 0400   45      30/  9/ 10   N/A
KENOSHA   LAKESH 0400   45      30/  9/ 12 1024.0F
$$

TC  - TEMPERATURE IN CELSIUS
VSB - VISIBILITY IN STATUTE MILES
WCI - WIND CHILL INDEX
HX  - HEAT INDEX




USA.gov is the U.S. government's official web portal to all federal, state and local government web resources and services.